Total_Precipitation_Accumulation
0.03 0.02 0.01 0.01 0.02 0.02 0.02 0.01 0.01 0.01 0.01 0.00 0.00 0.00 0.00 0.00 0.00 0.00 0.00 0.00 0.00 0.00 0.02 0.05 0.07 0.10 0.13 0.16 0.18 0.19 0.18 0.16 0.15 0.14 0.14 0.14 0.14 0.15 0.16 0.16 0.17 0.18 0.19
0.04 0.03 0.02 0.03 0.03 0.03 0.02 0.01 0.02 0.01 0.01 0.01 0.01 0.00 0.00 0.00 0.00 0.00 0.00 0.00 0.00 0.00 0.02 0.04 0.09 0.13 0.15 0.19 0.23 0.25 0.23 0.20 0.18 0.18 0.17 0.17 0.17 0.17 0.17 0.18 0.18 0.20 0.20
0.06 0.05 0.05 0.04 0.05 0.05 0.04 0.04 0.03 0.02 0.02 0.02 0.02 0.02 0.02 0.01 0.01 0.01 0.00 0.00 0.00 0.00 0.01 0.04 0.09 0.13 0.14 0.18 0.23 0.27 0.28 0.26 0.24 0.22 0.22 0.22 0.21 0.20 0.21 0.22 0.22 0.23 0.24
0.11 0.10 0.08 0.08 0.07 0.07 0.07 0.06 0.06 0.06 0.05 0.04 0.03 0.02 0.02 0.01 0.01 0.01 0.01 0.01 0.01 0.01 0.01 0.02 0.04 0.07 0.11 0.15 0.20 0.29 0.35 0.35 0.29 0.26 0.25 0.26 0.27 0.27 0.28 0.29 0.30 0.30 0.30
0.20 0.16 0.13 0.13 0.12 0.12 0.11 0.11 0.11 0.09 0.08 0.06 0.05 0.03 0.03 0.02 0.02 0.01 0.01 0.01 0.01 0.01 0.01 0.01 0.02 0.04 0.06 0.10 0.17 0.28 0.38 0.41 0.37 0.32 0.29 0.29 0.32 0.34 0.36 0.39 0.40 0.41 0.42
0.34 0.29 0.24 0.21 0.17 0.16 0.16 0.16 0.14 0.12 0.11 0.10 0.09 0.06 0.04 0.03 0.02 0.02 0.02 0.02 0.02 0.02 0.02 0.02 0.03 0.03 0.03 0.06 0.11 0.17 0.26 0.34 0.38 0.37 0.34 0.34 0.36 0.39 0.43 0.47 0.49 0.52 0.56
0.50 0.47 0.41 0.35 0.30 0.25 0.21 0.19 0.18 0.17 0.14 0.15 0.15 0.10 0.06 0.04 0.03 0.03 0.03 0.03 0.03 0.04 0.04 0.04 0.04 0.05 0.05 0.06 0.07 0.10 0.15 0.22 0.32 0.39 0.41 0.40 0.42 0.46 0.53 0.60 0.65 0.66 0.68
0.69 0.59 0.52 0.49 0.46 0.38 0.29 0.27 0.27 0.26 0.22 0.25 0.27 0.24 0.13 0.05 0.02 0.03 0.03 0.04 0.05 0.05 0.06 0.07 0.06 0.06 0.07 0.08 0.08 0.08 0.10 0.14 0.25 0.41 0.48 0.49 0.51 0.54 0.61 0.70 0.77 0.83 0.88
0.88 0.75 0.68 0.65 0.61 0.54 0.44 0.41 0.41 0.41 0.38 0.37 0.38 0.41 0.30 0.15 0.09 0.05 0.05 0.07 0.08 0.08 0.08 0.09 0.09 0.09 0.08 0.08 0.08 0.09 0.12 0.15 0.22 0.38 0.53 0.62 0.66 0.68 0.73 0.82 0.91 1.00 1.05
0.97 0.92 0.84 0.77 0.72 0.69 0.62 0.60 0.60 0.59 0.57 0.47 0.41 0.39 0.38 0.33 0.29 0.16 0.09 0.10 0.12 0.11 0.11 0.11 0.11 0.11 0.10 0.10 0.12 0.15 0.20 0.25 0.33 0.46 0.63 0.77 0.87 0.98 1.09 1.16 1.20 1.27 1.27
0.94 0.92 0.88 0.84 0.77 0.75 0.73 0.70 0.68 0.69 0.66 0.61 0.53 0.49 0.48 0.42 0.36 0.33 0.19 0.12 0.13 0.14 0.13 0.12 0.11 0.11 0.11 0.13 0.16 0.22 0.31 0.39 0.48 0.61 0.83 1.03 1.14 1.28 1.45 1.55 1.59 1.63 1.61
0.92 0.89 0.87 0.82 0.79 0.77 0.76 0.78 0.80 0.81 0.81 0.75 0.67 0.59 0.55 0.51 0.44 0.42 0.36 0.24 0.21 0.19 0.17 0.16 0.16 0.16 0.17 0.20 0.25 0.34 0.41 0.48 0.59 0.76 1.01 1.21 1.32 1.42 1.51 1.62 1.70 1.72 1.74
0.84 0.78 0.78 0.78 0.78 0.76 0.78 0.81 0.82 0.79 0.82 0.78 0.74 0.67 0.62 0.56 0.52 0.55 0.54 0.45 0.37 0.28 0.26 0.26 0.28 0.31 0.34 0.38 0.42 0.50 0.51 0.56 0.64 0.75 0.93 1.14 1.21 1.26 1.33 1.47 1.65 1.75 1.78
0.92 0.89 0.85 0.83 0.83 0.81 0.78 0.77 0.75 0.74 0.74 0.74 0.72 0.71 0.67 0.62 0.60 0.61 0.65 0.71 0.69 0.57 0.49 0.46 0.47 0.50 0.53 0.56 0.60 0.63 0.56 0.61 0.62 0.66 0.76 0.91 0.96 0.96 0.96 1.06 1.23 1.39 1.51
0.87 0.85 0.88 0.87 0.81 0.78 0.75 0.74 0.72 0.67 0.66 0.65 0.64 0.65 0.64 0.61 0.62 0.67 0.74 0.84 0.97 0.93 0.77 0.64 0.63 0.65 0.67 0.66 0.68 0.59 0.51 0.58 0.60 0.60 0.63 0.69 0.71 0.68 0.67 0.74 0.82 0.91 1.03
0.81 0.79 0.81 0.83 0.79 0.73 0.68 0.65 0.62 0.61 0.60 0.57 0.57 0.60 0.61 0.60 0.61 0.66 0.73 0.80 0.91 1.03 0.97 0.74 0.63 0.60 0.60 0.57 0.60 0.50 0.45 0.53 0.50 0.50 0.52 0.54 0.56 0.54 0.55 0.58 0.62 0.66 0.69
0.74 0.75 0.75 0.72 0.72 0.70 0.63 0.59 0.54 0.52 0.52 0.50 0.48 0.51 0.53 0.54 0.57 0.60 0.63 0.69 0.74 0.82 0.86 0.73 0.60 0.55 0.53 0.48 0.46 0.39 0.36 0.35 0.35 0.42 0.43 0.44 0.44 0.44 0.47 0.48 0.51 0.54 0.57
0.59 0.63 0.64 0.61 0.58 0.58 0.58 0.57 0.53 0.49 0.47 0.45 0.44 0.44 0.44 0.44 0.47 0.51 0.55 0.59 0.61 0.61 0.63 0.61 0.51 0.45 0.41 0.36 0.31 0.27 0.24 0.23 0.22 0.28 0.29 0.30 0.30 0.31 0.32 0.33 0.36 0.41 0.44
0.47 0.50 0.52 0.52 0.50 0.48 0.47 0.48 0.49 0.48 0.45 0.44 0.44 0.45 0.46 0.47 0.50 0.51 0.51 0.50 0.48 0.46 0.46 0.45 0.37 0.31 0.28 0.25 0.23 0.19 0.15 0.12 0.11 0.13 0.14 0.14 0.15 0.17 0.22 0.25 0.27 0.27 0.29
0.39 0.41 0.42 0.43 0.45 0.45 0.46 0.48 0.50 0.53 0.53 0.53 0.53 0.57 0.59 0.58 0.54 0.49 0.46 0.43 0.41 0.40 0.37 0.37 0.37 0.32 0.28 0.22 0.19 0.15 0.11 0.08 0.07 0.06 0.08 0.09 0.11 0.13 0.13 0.14 0.13 0.12 0.12
0.35 0.35 0.38 0.40 0.43 0.47 0.51 0.55 0.60 0.66 0.73 0.76 0.76 0.73 0.71 0.69 0.63 0.55 0.48 0.43 0.40 0.40 0.43 0.45 0.42 0.32 0.22 0.16 0.12 0.09 0.10 0.10 0.08 0.08 0.09 0.07 0.08 0.07 0.06 0.05 0.05 0.06 0.07
0.35 0.35 0.38 0.43 0.48 0.54 0.69 0.69 0.64 0.68 0.76 0.76 0.73 0.69 0.64 0.61 0.54 0.51 0.47 0.42 0.43 0.48 0.55 0.55 0.44 0.29 0.15 0.10 0.10 0.13 0.18 0.25 0.20 0.09 0.09 0.07 0.05 0.06 0.05 0.04 0.04 0.06 0.09
0.46 0.48 0.51 0.58 0.64 0.69 0.75 0.69 0.66 0.59 0.60 0.59 0.56 0.53 0.50 0.46 0.45 0.39 0.39 0.43 0.45 0.48 0.45 0.38 0.29 0.19 0.15 0.14 0.23 0.33 0.31 0.29 0.19 0.07 0.08 0.08 0.05 0.06 0.06 0.06 0.06 0.07 0.08
0.67 0.73 0.77 0.79 0.80 0.79 0.73 0.61 0.54 0.47 0.47 0.46 0.42 0.40 0.38 0.38 0.37 0.37 0.43 0.49 0.41 0.34 0.29 0.23 0.21 0.20 0.20 0.20 0.27 0.36 0.32 0.24 0.13 0.08 0.09 0.13 0.07 0.06 0.05 0.05 0.06 0.07 0.08
0.83 0.82 0.81 0.76 0.70 0.64 0.56 0.45 0.38 0.32 0.31 0.30 0.29 0.29 0.32 0.32 0.36 0.47 0.53 0.49 0.35 0.27 0.27 0.27 0.28 0.25 0.23 0.20 0.20 0.29 0.36 0.36 0.23 0.08 0.06 0.11 0.08 0.06 0.05 0.03 0.03 0.06 0.10
0.74 0.68 0.61 0.56 0.50 0.43 0.39 0.33 0.30 0.25 0.23 0.21 0.21 0.22 0.26 0.28 0.40 0.50 0.43 0.37 0.29 0.25 0.28 0.26 0.23 0.20 0.17 0.15 0.16 0.24 0.49 0.71 0.48 0.23 0.06 0.18 0.18 0.19 0.27 0.06 0.03 0.06 0.10